Location: B�di�
(14.6834°N, 3.1047°W)
Time: 06:17:27
(UTC+00:00)

CENTAUR R/B - Pass Details

Date: 24 January 2020
Orbit: 766 x 1422 km, 63.5° (Epoch: 07 February)

Event Time Altitude Azimuth Distance (km) Brightness Sun altitude
Rises 20:28:52 0° 224° (SW) 3,241 6.0 -33.7°
Reaches altitude 10° 20:31:22 10° 233° (SW) 2,347 5.2 -34.3°
Enters shadow 20:35:48 35° 289° (WNW) 1,330 3.5 -35.4°
